Wind_Speed
22 20 18 16 14 15 18 18 15 14 16 17 17 16 15 13 11 10 9 8 8 7 8 11 14 16 17 18 18 19 18 18 16 15 13 13 13 14 14 16 16 16 19
22 22 21 17 17 17 19 19 18 16 16 15 16 18 18 17 14 12 11 10 9 9 9 9 12 15 17 19 20 20 20 20 19 17 16 16 15 16 16 17 17 18 21
27 26 24 22 21 19 19 20 21 20 19 18 17 17 19 20 18 16 15 14 13 12 11 10 11 13 14 18 20 21 22 22 20 18 18 18 17 18 18 19 20 21 23
32 32 30 26 23 21 20 21 22 24 23 22 21 18 19 20 21 20 19 17 17 16 15 14 14 13 14 16 19 22 23 23 22 21 19 19 19 19 21 22 21 22 23
33 35 34 32 30 29 28 26 24 25 27 26 25 25 23 23 22 21 21 21 21 21 20 19 17 17 17 18 19 19 22 23 23 23 21 21 21 21 23 24 25 25 23
31 32 33 33 33 33 34 33 31 30 29 30 30 29 29 28 25 22 22 22 23 24 23 23 23 22 21 21 21 22 23 24 24 25 24 24 23 24 26 26 26 28 28
30 29 28 31 32 35 36 37 37 35 33 32 31 32 32 31 29 26 25 27 27 27 26 26 27 26 26 26 26 26 25 26 27 27 26 25 26 26 29 28 29 29 29
43 32 28 30 34 36 41 39 37 36 36 34 33 33 33 33 32 31 30 31 32 31 31 30 29 29 29 29 29 30 30 30 30 29 29 28 29 30 31 31 31 30 29
37 41 32 27 31 35 46 40 36 37 36 35 35 35 35 34 33 33 34 36 37 35 34 33 33 32 30 29 32 32 32 31 32 31 32 31 31 31 32 31 30 30 29
39 38 25 30 26 32 42 44 38 38 36 36 36 36 35 34 34 34 36 38 40 38 37 37 36 34 32 32 34 34 35 31 31 32 32 32 32 31 31 30 28 27 28
28 31 37 36 29 32 37 41 41 40 39 38 37 36 35 34 33 33 35 38 39 39 39 39 38 36 35 34 33 36 35 32 35 36 35 34 33 33 32 31 30 29 30
22 25 29 33 32 30 34 36 40 40 40 41 40 38 34 31 29 28 30 34 34 38 39 38 37 37 37 38 37 36 35 36 39 40 38 36 34 33 33 34 35 34 32
25 18 20 23 20 24 28 32 41 40 40 40 41 40 38 34 29 28 27 29 32 34 35 36 35 35 37 40 41 39 39 41 40 40 39 37 36 35 35 36 37 37 36
35 29 24 18 15 18 19 25 33 37 41 40 42 41 40 37 35 33 30 29 31 33 31 32 32 34 35 37 40 42 43 43 42 41 40 37 36 35 35 35 37 37 38
44 43 38 31 25 19 18 19 23 24 33 37 40 40 37 36 33 30 31 31 31 28 28 31 35 36 35 34 35 38 39 40 40 39 38 38 37 36 35 35 37 37 40
53 47 49 43 36 28 26 24 23 25 24 29 36 41 38 36 33 32 31 32 33 34 35 32 30 30 32 33 33 34 35 37 37 37 37 37 37 37 36 36 37 39 40
62 57 56 55 48 40 35 33 31 28 26 27 28 35 39 37 33 33 32 31 33 35 34 34 33 33 31 32 31 29 27 25 28 31 32 33 34 35 36 37 37 38 40
65 64 59 61 55 53 51 42 39 35 34 29 27 29 33 35 34 34 34 33 34 35 34 34 34 35 34 35 36 34 34 34 33 32 35 37 37 36 38 38 37 39 41
63 64 64 62 61 62 57 48 49 46 40 38 35 28 29 34 35 35 36 36 34 34 34 35 34 35 35 37 38 38 38 37 35 35 35 37 38 40 41 40 40 39 39
59 64 64 64 64 63 58 60 56 51 48 41 38 40 31 31 36 38 33 29 28 30 33 35 34 36 37 37 39 43 43 41 40 37 36 37 36 36 37 37 38 40 39
50 58 62 64 65 65 66 65 61 56 56 47 41 40 39 34 32 40 40 33 30 26 28 32 36 38 38 38 37 41 44 44 44 41 40 40 39 39 38 37 37 37 38
40 46 55 61 64 67 67 66 66 65 64 56 46 43 37 42 35 32 37 45 48 46 40 37 38 40 42 43 43 42 41 43 44 45 44 42 41 42 41 40 39 41 43
42 42 48 58 63 66 67 66 67 69 69 66 51 50 48 39 35 33 37 41 41 38 47 41 38 45 44 45 46 45 43 42 45 47 47 45 43 43 42 42 43 46 44
37 39 43 49 58 63 64 65 66 68 70 64 65 56 54 48 41 38 39 40 39 38 38 41 45 46 46 46 45 45 47 44 47 48 49 47 47 46 46 44 42 40 43
35 37 37 41 46 57 60 62 63 65 69 72 72 63 59 53 47 44 44 44 41 43 43 45 45 45 45 46 46 47 47 45 46 50 51 50 49 48 50 49 46 46 47
30 33 35 36 38 47 56 57 60 61 65 66 65 64 59 62 54 51 50 48 50 49 44 46 50 48 47 44 44 46 42 45 46 49 51 52 50 51 49 49 54 52 49
Wind_Direction
216 214 211 217 222 225 222 223 220 222 232 236 245 239 234 224 214 207 202 187 189 199 203 203 208 207 207 209 211 214 215 218 222 229 237 251 265 279 295 306 316 327 334
221 230 218 216 223 225 226 228 227 221 230 240 247 236 233 228 222 222 220 213 210 210 217 216 216 213 215 218 219 221 224 225 231 238 248 257 268 277 288 297 309 323 326
225 220 219 211 217 224 227 228 230 228 224 233 242 241 236 235 232 231 230 228 225 223 223 223 227 223 224 225 228 231 232 233 237 243 253 261 268 275 286 296 306 314 320
223 222 219 218 216 224 232 235 232 232 229 227 231 235 236 239 238 237 238 239 236 233 232 227 233 232 232 234 234 234 235 238 244 248 254 257 266 275 283 289 295 304 308
220 226 227 220 222 226 229 234 235 233 232 229 229 231 233 236 239 241 244 241 242 238 236 235 234 240 240 239 238 238 238 240 246 250 256 259 266 274 282 287 293 296 299
225 226 231 233 233 232 227 228 232 233 231 230 229 231 233 234 234 240 247 246 243 244 244 242 240 241 245 247 246 243 244 246 249 255 260 265 271 277 281 285 288 292 296
233 237 225 229 236 237 235 233 229 230 230 230 229 231 234 237 237 234 238 245 247 248 249 248 248 247 247 249 251 252 252 254 257 260 264 268 272 276 279 283 284 286 291
230 229 237 239 251 236 233 234 235 235 234 233 232 233 234 234 237 237 237 240 243 245 247 249 250 250 251 254 255 256 258 260 263 267 269 270 273 276 277 278 281 284 287
214 231 243 250 250 235 225 228 235 235 236 238 240 239 239 238 237 238 238 241 242 243 246 249 250 251 253 256 260 261 260 261 266 267 269 271 272 273 275 277 282 283 284
237 238 250 253 250 233 221 221 228 233 237 239 242 244 243 242 241 239 240 242 244 243 243 247 251 252 252 254 257 262 264 264 264 266 266 267 270 271 275 281 282 282 280
237 232 248 256 243 237 226 225 227 232 235 238 240 244 244 242 243 244 244 246 248 248 245 245 249 252 255 255 256 260 264 266 265 264 265 266 269 273 277 279 279 279 277
211 216 229 237 243 244 236 224 223 227 233 240 241 244 245 245 247 248 249 253 253 251 250 248 248 248 249 252 254 256 259 259 261 264 264 266 270 273 276 278 277 276 274
239 225 227 246 247 247 247 239 226 227 230 233 239 243 245 243 243 250 251 251 252 253 254 253 250 249 248 246 250 253 253 255 260 263 266 268 269 270 271 274 276 277 276
235 232 228 223 228 249 246 241 242 233 226 231 233 239 241 242 242 244 250 253 252 252 252 253 250 248 246 247 248 249 251 256 260 264 267 269 270 272 273 272 272 274 274
237 236 238 235 236 233 248 253 243 241 234 229 228 231 233 237 241 244 248 251 253 254 252 249 248 248 249 249 249 252 255 258 261 265 267 268 269 270 271 272 272 272 272
239 235 241 238 239 235 239 249 252 249 250 237 227 229 229 234 234 235 238 244 248 252 254 255 255 254 255 254 255 257 258 260 263 265 266 266 268 270 270 270 270 271 271
244 241 235 242 246 235 238 246 253 245 246 247 236 229 233 232 235 240 239 239 242 247 252 256 258 256 256 259 260 262 267 267 261 261 264 267 268 267 268 270 273 275 276
240 242 241 238 243 242 247 246 248 249 239 237 241 236 233 234 239 238 236 229 237 243 250 257 262 262 262 265 265 262 262 263 265 263 263 265 266 267 269 272 276 275 277
234 238 241 240 238 243 249 251 249 248 249 239 236 236 240 238 236 237 236 237 240 247 252 256 260 262 262 264 266 266 260 256 258 261 259 260 262 265 268 270 270 271 270
235 233 234 237 241 242 245 249 251 244 244 243 243 235 234 242 242 239 241 242 247 253 256 261 263 263 263 264 264 263 261 255 255 260 264 265 265 267 268 267 266 266 264
237 236 235 234 237 241 246 246 245 242 242 241 241 238 236 237 244 248 240 237 243 252 260 264 263 260 261 262 265 262 259 258 253 257 263 265 265 265 263 261 262 264 265
240 238 235 236 235 236 237 239 241 242 243 242 242 239 234 237 240 248 252 252 258 257 263 268 267 263 261 260 261 263 261 257 255 256 258 261 264 262 260 262 262 266 266
246 247 240 234 235 235 234 232 234 237 239 240 235 239 238 239 241 249 247 249 251 253 255 256 263 267 259 260 259 261 261 259 257 256 255 255 254 255 258 261 264 265 262
248 252 241 238 235 234 235 233 231 232 235 234 238 240 240 238 239 243 250 248 250 256 260 259 258 260 258 261 261 262 263 263 259 255 252 253 252 253 256 258 257 256 260
250 247 239 243 238 234 237 236 235 231 233 234 238 240 237 239 241 243 248 254 255 257 255 256 258 257 257 260 263 265 264 265 264 256 253 253 255 258 260 260 254 257 256
260 255 242 239 239 239 238 240 238 235 233 235 236 239 237 235 237 241 247 256 259 260 257 258 259 260 261 263 266 268 268 263 262 260 255 255 258 260 258 263 265 261 254
Height
3210 3214 3216 3219 3221 3225 3228 3231 3233 3235 3238 3241 3242 3243 3245 3246 3247 3248 3249 3250 3251 3252 3254 3255 3257 3258 3260 3263 3265 3268 3270 3271 3272 3273 3274 3274 3274 3274 3273 3271 3269 3268 3266
3206 3210 3213 3215 3217 3220 3224 3227 3229 3232 3235 3238 3239 3240 3242 3244 3246 3247 3248 3249 3250 3251 3253 3254 3255 3257 3259 3261 3263 3265 3267 3269 3270 3271 3272 3272 3272 3271 3271 3269 3267 3266 3263
3199 3204 3207 3209 3212 3215 3219 3223 3225 3228 3230 3233 3237 3239 3240 3242 3243 3245 3246 3247 3248 3250 3251 3253 3254 3255 3256 3258 3260 3262 3264 3266 3267 3268 3269 3269 3269 3268 3268 3266 3265 3263 3261
3193 3197 3200 3203 3207 3211 3214 3217 3220 3223 3226 3228 3231 3235 3237 3238 3239 3241 3243 3245 3246 3247 3248 3250 3251 3253 3254 3255 3256 3258 3260 3261 3263 3264 3265 3265 3265 3265 3264 3263 3263 3261 3259
3187 3191 3195 3198 3201 3204 3207 3211 3215 3217 3220 3223 3225 3228 3231 3234 3236 3238 3239 3241 3242 3244 3245 3246 3247 3249 3251 3252 3253 3255 3256 3257 3258 3260 3261 3261 3262 3261 3260 3259 3258 3257 3257
3182 3187 3190 3192 3195 3198 3200 3204 3207 3210 3213 3215 3218 3222 3225 3227 3230 3233 3235 3236 3238 3240 3241 3243 3243 3244 3246 3248 3249 3250 3251 3252 3254 3254 3256 3257 3257 3256 3255 3255 3254 3251 3250
3173 3180 3182 3186 3189 3191 3194 3196 3199 3202 3205 3207 3210 3214 3217 3221 3224 3227 3230 3232 3233 3235 3237 3238 3239 3240 3241 3242 3244 3245 3247 3248 3248 3250 3250 3252 3251 3251 3250 3250 3248 3247 3245
3164 3170 3174 3177 3179 3181 3184 3188 3193 3195 3197 3200 3203 3205 3208 3212 3217 3220 3223 3224 3226 3229 3230 3232 3233 3235 3236 3237 3238 3239 3241 3242 3244 3244 3244 3246 3245 3244 3243 3242 3242 3242 3240
3161 3163 3166 3169 3168 3169 3174 3180 3185 3187 3190 3193 3196 3198 3200 3204 3208 3212 3214 3216 3217 3220 3223 3225 3226 3228 3230 3231 3231 3233 3234 3236 3237 3237 3237 3237 3237 3236 3236 3236 3236 3235 3234
3151 3153 3156 3160 3162 3162 3166 3170 3174 3177 3181 3184 3186 3190 3192 3196 3199 3202 3204 3206 3207 3211 3214 3217 3219 3221 3223 3224 3224 3225 3225 3230 3230 3229 3229 3229 3229 3229 3229 3229 3229 3229 3227
3142 3143 3147 3151 3153 3157 3160 3162 3164 3168 3171 3175 3177 3181 3184 3187 3190 3193 3195 3196 3199 3203 3204 3207 3210 3214 3216 3217 3217 3217 3219 3223 3221 3220 3221 3222 3222 3222 3222 3222 3222 3222 3221
3134 3136 3140 3142 3144 3147 3151 3152 3155 3158 3161 3166 3169 3172 3175 3179 3181 3184 3187 3188 3191 3191 3195 3197 3201 3205 3208 3208 3208 3209 3211 3212 3211 3211 3212 3214 3215 3215 3215 3213 3213 3213 3213
3128 3130 3132 3135 3136 3138 3140 3143 3146 3148 3151 3155 3159 3163 3167 3170 3172 3175 3177 3179 3181 3182 3185 3188 3191 3194 3196 3197 3197 3199 3200 3200 3201 3201 3203 3205 3207 3207 3206 3206 3205 3205 3205
3120 3123 3126 3128 3128 3130 3130 3133 3137 3139 3142 3145 3148 3153 3157 3160 3162 3165 3168 3170 3172 3173 3177 3179 3181 3182 3185 3186 3188 3189 3189 3190 3191 3193 3194 3196 3197 3197 3197 3198 3197 3197 3196
3106 3111 3115 3117 3119 3120 3122 3125 3127 3131 3133 3135 3139 3143 3147 3150 3154 3157 3160 3162 3164 3166 3167 3168 3170 3172 3174 3176 3177 3178 3180 3181 3182 3184 3185 3186 3187 3187 3188 3188 3187 3188 3186
3092 3097 3102 3105 3108 3111 3115 3119 3121 3122 3124 3126 3129 3133 3138 3141 3144 3145 3148 3152 3155 3157 3156 3160 3162 3163 3165 3166 3168 3170 3171 3172 3173 3174 3174 3175 3176 3177 3178 3178 3178 3178 3178
3073 3081 3087 3091 3096 3100 3105 3109 3112 3115 3115 3118 3119 3123 3128 3133 3134 3137 3139 3141 3144 3146 3148 3151 3154 3155 3157 3158 3160 3162 3162 3163 3164 3164 3164 3165 3166 3167 3168 3168 3168 3168 3168
3055 3062 3070 3077 3082 3087 3092 3097 3101 3105 3107 3110 3111 3112 3116 3121 3124 3126 3128 3127 3131 3134 3138 3141 3144 3146 3147 3149 3150 3151 3152 3153 3154 3155 3155 3156 3156 3156 3156 3156 3158 3157 3156
3036 3042 3050 3058 3066 3072 3077 3083 3088 3092 3097 3099 3102 3104 3107 3109 3111 3115 3117 3118 3121 3125 3128 3131 3133 3135 3136 3138 3139 3140 3140 3141 3144 3144 3145 3145 3145 3145 3145 3146 3145 3145 3145
3019 3023 3030 3038 3047 3054 3060 3067 3073 3078 3084 3088 3091 3096 3098 3100 3102 3106 3110 3111 3112 3115 3117 3120 3122 3124 3125 3126 3127 3128 3128 3130 3132 3133 3134 3135 3135 3135 3134 3134 3134 3132 3132
3003 3008 3014 3018 3027 3035 3042 3051 3057 3064 3070 3075 3079 3085 3087 3089 3092 3093 3096 3099 3104 3105 3107 3108 3111 3112 3113 3114 3115 3115 3116 3117 3119 3121 3122 3123 3123 3123 3123 3122 3122 3122 3122
2987 2992 2997 3003 3008 3015 3023 3031 3038 3046 3054 3060 3066 3071 3075 3077 3081 3083 3085 3089 3091 3091 3095 3098 3098 3100 3101 3101 3102 3103 3104 3105 3107 3108 3109 3110 3111 3111 3111 3111 3112 3112 3112
2974 2976 2981 2986 2991 2998 3005 3012 3019 3028 3037 3044 3050 3056 3061 3064 3068 3072 3073 3077 3078 3081 3084 3085 3086 3088 3091 3089 3090 3090 3091 3092 3094 3096 3096 3096 3097 3099 3100 3100 3100 3100 3099
2960 2963 2966 2970 2975 2980 2987 2993 3000 3008 3017 3025 3033 3041 3045 3051 3055 3059 3062 3064 3065 3068 3069 3072 3075 3076 3077 3077 3078 3078 3078 3078 3081 3082 3082 3083 3084 3085 3086 3088 3087 3088 3090
2949 2952 2954 2957 2961 2966 2971 2977 2984 2990 2998 3006 3016 3024 3030 3037 3041 3045 3048 3051 3052 3055 3057 3059 3061 3061 3062 3062 3062 3064 3064 3066 3068 3070 3070 3070 3072 3073 3073 3074 3074 3074 3075
2938 2940 2943 2945 2948 2952 2957 2963 2969 2975 2982 2989 2998 3007 3014 3022 3028 3031 3034 3036 3039 3042 3043 3044 3047 3047 3047 3047 3048 3050 3052 3053 3056 3056 3056 3057 3058 3059 3060 3059 3058 3056 3057